TIMESTAMP,CO2_1_1_1,H2O_1_1_1,TAU_1_1_1,TAU_SSITC_TEST_1_1_1,H_1_1_1,H_SSITC_TEST_1_1_1,LE_1_1_1,LE_SSITC_TEST_1_1_1,FC_1_1_1,FC_SSITC_TEST_1_1_1,WD_0_0_1,WS_0_0_1,WS_MAX_0_0_1,U_SIGMA_0_0_1,V_SIGMA_0_0_1,W_SIGMA_0_0_1,USTAR_0_0_1,MO_LENGTH_0_0_1,ZL_0_0_1,FETCH_MAX_0_0_1,FETCH_70_0_0_1,FETCH_80_0_0_1,FETCH_90_0_0_1,PA_0_0_1,RH_0_0_1,TA_0_0_1,VPD_0_0_1,T_SONIC_0_0_1,T_SONIC_SIGMA_0_0_1
[yyyymmddHHMMSS],[mmolCO2 mol-1],[mmolH2O mol-1],[kg m-1 s-2],[#],[W m-2],[#],[W m-2],[#],[umolCO2 m-2 s-1],[#],[Decimal degrees],[m s-1],[m s-1],[m s-1],[m s-1],[m s-1],[m s-1],[m],[#],[m],[m],[m],[m],[kPa],[%],[deg C],[hPa],[deg C],[deg C]
20240202003000,420.77005181729055,4.2337418435802316,0.23626572568146187,0,4.0195345641936955,2,0.39908156724054383,2,0.26726505416292751,1,7.0879275920063662,3.0793961301084045,7.7112896691707018,1.1456182151845806,0.89881698655535713,0.59162866792588964,0.44003588164226881,-1775.0932395608691,-1.0703663095860986E-002,98.811161636546359,180.65831767525529,216.20186547912795,270.65908013320882,94.612041528839882,84.769999999999996,-3.4483333333333235,0.71985493474900697,-3.1670848838168695,0.10594346318152305
20240202010000,420.95103495212629,4.2481672811335214,0.24538675732947363,0,-1.9524998074270081,0,0.67825359279981823,1,0.58289837401217359,0,5.7029358332811455,2.6873702851931718,7.3353076001691688,1.0864819911396102,0.92630741478002165,0.55565675262390257,0.44825543435455234,3863.9550363823842,4.9172414847220092E-003,105.44599113846813,192.78890207510520,230.71907681126243,288.83290604607652,94.646636921497290,85.960000000000008,-3.5843333333333476,0.65689200598088460,-3.2976715431308321,8.5845238992995232E-002
20240202013000,421.06046901233344,4.1441340883876574,0.58367359358089987,0,14.727566966514383,1,1.7060757891465310,2,0.98761678558043464,0,12.931277329895636,3.1745668894043453,8.4079411152788790,1.3482690320695681,1.1082239004537344,0.75698870880192082,0.69063594231387060,-1874.0725345946259,-1.0138348249210014E-002,116.35437549803108,212.73290773513816,254.58695781620111,318.71266079846669,94.687182460097532,86.539999999999992,-3.9990000000000236,0.61047747059632740,-3.7446488110974769,0.16207607746306471
20240202020000,421.07724210434685,4.1399491961946415,0.38784843026233329,0,10.038422624487819,0,1.9747478294220426,1,0.83871540060141692,0,18.151464352959522,2.6657771198271534,7.6974124250828968,1.2617824568076867,0.96950644974371591,0.65072356152217414,0.56265370043524243,-1487.2020448199121,-1.2775668286753025E-002,111.46297175345454,203.78986165684159,243.88441574631921,305.31434813681733,94.730930836371527,87.736666666666665,-4.1890000000000214,0.54831572154901209,-3.9153135028415136,7.4119617483820871E-002
20240202023000,421.23690500386607,4.1616920949170835,0.43713858309956016,0,6.3604358182155014,0,-1.5375851743163564,1,0.71780241978337000,0,10.627806799216046,2.6226346884561065,6.8914067330968152,1.1102124327687724,1.0076113464835093,0.66375053941041651,0.59714303176020778,-2806.2001677790840,-6.7707215679618481E-003,115.05716933315018,210.36120114304930,251.74863076778652,315.15941214199171,94.748523136501746,89.063333333333333,-4.3163333333333185,0.48433394104864136,-4.0435953487819916,7.0829166629446716E-002
20240202030000,421.06745943665118,4.1179800684968404,0.48184509856509372,0,19.791875843800835,1,2.3229865206071900,1,1.0603639191526333,0,24.832604742802459,2.7284501697929318,8.6460035087522975,1.3593095470167877,0.98274128243526748,0.68835531129165661,0.62677718449860598,-1042.8241200277578,-1.8219755023976873E-002,116.17035298745553,212.39645589483652,254.18431089435910,318.20859463214242,94.746014654513885,89.046666666666667,-4.4543333333333521,0.48005423801527969,-4.1812819663153391,0.10896053971626483
20240202033000,420.97110076263345,4.1676286165034027,0.17703976204403454,0,7.4736864678306310,0,-0.10363626330310274,2,0.36231352878729572,0,11.721299534240217,2.6761945472602688,7.2685419657736743,1.0376279281598852,0.79343796852566906,0.54328391903216633,0.37977946258430378,-614.46842873973742,-3.0921035339388590E-002,94.028303414565627,171.91372743108272,205.73682435636516,257.55809047446502,94.770063418402771,91.093333333333334,-4.5933333333333053,0.38628270745648935,-4.3106077465481007,7.2116705064549938E-002
20240202040000,420.87568886282895,4.2330760454556495,0.42395644154942103,0,13.832122730047882,1,1.4011667822814311,1,0.83246802059049863,0,24.033113674786733,2.3464869532663144,7.0902726680791011,1.3293543369393503,0.90708937386044763,0.59770439796067099,0.58778734104269048,-1231.0508227407388,-1.5433968808614678E-002,123.54976439392949,225.88837348842645,270.33069037005123,338.42194573661953,94.788077336371529,91.686666666666667,-4.4703333333333148,0.36391107638530057,-4.1822057448492842,7.7133399541544370E-002
20240202043000,420.94688394668788,4.2918547658854882,0.22862292715249782,0,7.0432120069074635,0,0.21240626830432846,2,0.31851216802711141,0,19.556342171828106,2.0953828080244512,5.7758572331000142,0.98277274225004552,0.70646761115286349,0.48435902929570973,0.43167829463498270,-957.56881318046976,-1.9841916046632081E-002,114.19554184240812,208.78587128797918,249.86336327612662,312.79928095641242,94.773357836417588,92.926666666666662,-4.4676666666666733,0.30969310073232920,-4.1748741415265158,6.5829467154010335E-002
20240202050000,420.97268214372781,4.2756980960210909,0.28899945984573000,0,13.547500834690725,0,-1.5157076182678126,2,0.90584861091406343,0,43.021106335023688,2.0756888876345467,5.9780080554125146,1.0550014435071129,0.76770463117871923,0.51925083996915222,0.48542487100713649,-707.97289465195092,-2.6837185637369150E-002,118.64535843799858,216.92155522093148,259.59969906120062,324.98801800369091,94.788679217881949,91.650000000000006,-4.3319999999999936,0.36934650153706400,-4.0455615454779377,7.5662236830796523E-002
20240202053000,420.84182636355200,4.2292796796693564,0.31685621374445916,0,15.587300176173589,0,1.5089585848617930,1,0.54012974280046511,0,20.468488207205297,2.0295154572669962,6.5785805205144916,1.0722969798321793,0.65307097011996040,0.49056133502867083,0.50805757076582381,-705.55586357406662,-2.6929122102045219E-002,128.77471269695044,235.44124539814018,281.76303820844890,352.73388861854772,94.806377950737854,91.926666666666662,-4.5143333333333544,0.35223443525948883,-4.2362121861775677,8.0594932586447454E-002
20240202060000,420.78499734530095,4.2184733047269569,0.24462999581114492,0,13.740214764747597,0,0.82893598117926082,1,0.64068189100532635,0,37.503628558229821,2.0648325130439158,5.3900929572969138,0.83899602606039947,0.70732580407051271,0.47457491144601038,0.44630746348481115,-542.70266892576853,-3.5009962338325706E-002,119.21156766561454,217.95676627218455,260.83858229295885,326.53895279861990,94.834046851996519,92.046666666666667,-4.5616666666666674,0.34576194045008718,-4.2744496070013724,5.2911886046543816E-002
20240202063000,420.84211305348362,4.2493507952461940,0.19836522413477828,0,10.209086341996372,0,1.2464643703301046,1,0.60127434312809469,0,29.899340898267923,1.4335293510371410,4.4703773368593840,0.75489778928793316,0.57189801355267933,0.40401286253079377,0.40192695193761629,-533.53787825694792,-3.5611342276339261E-002,124.69712768674431,227.98611952044556,272.84115659856570,341.56475155195983,94.850909635633684,92.123333333333335,-4.4736666666666451,0.34470960701243486,-4.1883763673570229,5.6445244762204777E-002
20240202070000,420.54104121453236,4.1916014064732625,0.21814746520765640,0,8.7800775425190540,1,-1.0690938451261638,1,0.28405285431955385,2,33.613480930059012,1.6817318369925498,5.3150616864091091,0.88640040226301187,0.70579029057607112,0.44026342270711455,0.42131653978251177,-714.67867300386001,-2.6585374263571149E-002,120.88477941127603,221.01593098676960,264.49962113474697,331.12213899386569,94.874667644965271,91.933333333333337,-4.6243333333333112,0.34903407552108318,-4.3497118996514246,0.10338416575621698
20240202073000,420.37825043988460,4.1758390993723111,0.20580937514022155,1,18.374347004703143,1,2.6335522377167693,1,0.73691129952024614,1,42.810448850764203,1.2819997856708163,4.9944488894009398,1.0440616345760005,0.49053989096068584,0.38192401213733296,0.40916245521569583,-312.77435843773787,-6.0746667645334540E-002,132.30917132913007,241.90336303552846,289.49654257252882,362.41531839136388,94.866617692057289,92.329999999999998,-4.7323333333333153,0.32917449719400965,-4.4571677449544040,7.9145285384591493E-002
20240202080000,420.24393348096862,4.1631851055831488,0.19572259916760343,0,10.538733649802488,0,0.83641762204316783,1,0.70121404016480726,0,72.297632522976315,1.7138623395385535,5.5126782693845282,0.90482693503621703,0.61371991859555453,0.45546821122255976,0.39893288125937976,-505.49908131092479,-3.7586616281728491E-002,112.61812946357594,205.90185836959904,246.41193640000282,308.47850406871765,94.883357163411461,92.450000000000003,-4.7873333333333221,0.32268017146276295,-4.5013470611572188,6.0756500438678820E-002
20240202083000,420.04297519803248,4.0827111494827015,0.21981457785572170,0,12.557191698147591,1,2.7755858820358466,1,0.96302683553891744,0,80.612503474191143,2.2391186625280897,5.4258876785850267,0.92259477645026355,0.79970457755069935,0.49217795651118379,0.42265956105504499,-504.53421411292999,-3.7658496626251051E-002,110.85358198404381,202.67570280346027,242.55105215896344,303.64513514812711,94.885804199218754,91.556666666666672,-4.9166666666666856,0.35734716348788370,-4.6454997016058996,9.6201535845841291E-002
20240202090000,420.03786379020056,4.0831627078462054,0.19804498892828273,1,9.2609610221281180,0,0.34910162079782570,2,0.34856924313337251,0,76.141050679736765,1.2544014925248408,4.0869012534427585,0.69084431135049496,0.71463679192100726,0.41583041874129478,0.40115712645088969,-584.87924255441794,-3.2485338199076563E-002,121.66719754736691,222.44644087900940,266.21157611843358,333.26530348547283,94.875994688906800,92.006666666666661,-4.9813333333333389,0.33664962486033462,-4.7025398158990015,6.3349434957562831E-002
20240202093000,420.06041249900028,4.0535394605543988,0.16050025092523368,0,11.896517314125855,0,1.1404887553750289,2,0.57701199042807971,0,85.065116709531580,1.2205537730891789,4.0128985220502527,0.72255815494239739,0.61974038922652852,0.40612566290383501,0.36104382257397521,-331.92293006278391,-5.7242203774249975E-002,113.96578548860931,208.36580339620429,249.36064929650863,312.16994270814160,94.876389485677080,92.260000000000005,-5.1136666666666883,0.32272792386740207,-4.8470238605075338,9.5364320340721662E-002
20240202100000,420.08208875615009,4.0402962441656660,0.11012030251543556,0,8.9882910322506184,0,0.28176883842962219,1,0.57053028797538319,0,58.990649549556693,1.2803643227534376,3.8864396912003119,0.76106953500100638,0.66778756300866671,0.33771525119915830,0.29896890900611078,-249.48949676742302,-7.6155510537231227E-002,113.58348300702430,207.66683253074407,248.52415969020277,311.12275698251432,94.899438401041664,92.636666666666670,-5.2073333333333380,0.30484906901946546,-4.9281427442762151,5.3457042509538401E-002
20240202103000,420.05670042274079,4.0142989516877892,0.15953944191145605,0,8.4126968846500123,0,3.7995585853985898,1,0.37342863363415441,0,57.291372175948922,1.8920966801369243,4.2209597370017180,0.86398341275465673,0.64045007071216675,0.39915296062581140,0.35971849994234378,-464.33569704218166,-4.0918671816597342E-002,115.21622318540032,210.65200231258694,252.09664549606802,315.59508528487015,94.908705032986106,93.266666666666666,-5.3803333333333399,0.27512870142226065,-5.1117746463351637,9.3145237101944861E-002
20240202110000,420.12452939926771,4.0408657094324054,0.19358926551869513,0,11.203672514774757,1,1.7156570300507439,1,0.57049594569468487,0,43.270791900259240,1.8581469601719576,4.7302997636398416,0.83616829071856991,0.58166137125334150,0.42296101868227698,0.39621363626444706,-465.96925171142698,-4.0775222678784459E-002,118.83877318371486,217.27517906257012,260.02289648285273,325.51781095716638,94.923580703120663,93.969999999999999,-5.3903333333333308,0.24620286056455598,-5.1088025743752041,9.8352605645617930E-002
20240202113000,420.24622211324208,4.0317274005304524,0.11109948386081801,1,12.252791769029953,1,1.5087672518524271,2,0.25309313591368809,1,88.537982849504516,1.2657438860431709,3.7937639649636608,0.56146457374516556,0.58896005776033478,0.35615185911121922,0.30009159456084261,-185.12036688582981,-0.10263592450482752,109.18168492839786,199.61894176152248,238.89288989942753,299.06555009251343,94.923424269965281,94.556666666666672,-5.5020000000000095,0.22037068018908088,-5.2394787487453414,8.2726173231796013E-002
20240202120000,420.44304604811981,3.9923918345390605,0.12415028108514677,1,3.5781964633292938,1,-0.57442473311349795,2,0.69888656274311822,0,84.924288975722575,1.1622484103538255,3.4164299708431156,0.60213291206505448,0.51180838661227546,0.37826115644568864,0.31711846029068846,-747.98617398390888,-2.5401539040223943E-002,108.74235204944139,198.81570114075492,237.93161602688585,297.86214927299858,94.913963490234366,95.116666666666674,-5.7096666666666920,0.19459850305046134,-5.4426143408880989,9.2454448317846757E-002
20240202123000,420.50205285523919,3.9556519604037192,2.7768173093015144E-002,0,-3.2435988193188954,1,-1.1604947071101424,1,0.27863844395153142,0,72.900752927193835,1.0273972494375263,2.3768971481497045,0.51590603691288961,0.44769608561634650,0.23953748709233499,0.14990632151830621,87.163234455580536,0.21798181445047951,73.090617618117463,609.00000000000000,1086.0000000000000,2781.0000000000000,94.917344703124996,95.946666666666673,-5.9443333333333044,0.15865821417482948,-5.6587218449910210,5.7024974190877271E-002
20240202130000,420.82315301844915,3.9299155179193046,2.5280372678499485E-002,0,-2.2509974015084078,1,-0.51647735865502264,2,0.34795941943753805,0,123.95414076459635,0.67216034457493756,2.0950401518550938,0.43025398682033189,0.47311736952160510,0.22126791839003210,0.14298702105200833,108.99709230267239,0.17431657669581851,37.959284600770573,292.00000000000000,508.00000000000000,1249.0000000000000,94.917943412326395,96.566666666666663,-6.1139999999999759,0.13265900724722030,-5.8340353105332952,7.7224303531611874E-002
20240202133000,420.73061241560634,3.8846333084303306,0.12614850822096838,1,7.6774732257930696,0,-3.5587706593556812,2,0.68496817744985761,0,146.88689363345173,1.2553032928236540,3.0970144986084902,0.57975298344252102,0.52892252009892526,0.36104981300561317,0.31926107379495144,-355.67194218244606,-5.3420013632263771E-002,113.47964703212378,207.47698725184026,248.29696337851570,310.83833416037720,94.897863625868055,97.633333333333326,-6.4116666666666902,8.9384439572332330E-002,-6.3117193645900329,0.16504919003556093
20240202140000,420.38456053731272,3.6948737612933513,6.1707737884609877E-002,0,2.3479496088685461,0,-0.21967606686955082,2,0.42289842999479116,0,141.98715908742386,1.1703595477287436,3.8372911673795276,0.69205810410098090,0.54235612383282117,0.36068062553630176,0.22323574846367081,-397.51105238016919,-4.7797413144198303E-002,85.303655569379046,155.96228858636943,186.64702611357100,233.65992835235318,94.876674076972890,94.109999999999999,-6.5883333333333098,0.21945983965981156,-6.5666700131377524,3.8562141377852931E-002
20240202143000,420.35369080620904,3.7034919485837476,0.13424903458941484,1,26.308596896145833,1,5.7421285867223579,1,0.13325936353392992,1,113.99833288845139,0.75421261326836830,2.2285790105766505,0.46173101455893467,0.37315023083950305,0.33028864988625128,0.32929474530384201,-113.88189687511024,-0.16683951111945866,124.91305224166454,228.38089847244444,273.31360617615718,342.15620236019794,94.892054258632911,93.726666666666659,-6.5026666666666415,0.23528428725440848,-6.4714226841515483,9.8537683834346745E-002
20240202150000,420.07897101089429,3.8507163419111943,0.11189882464957068,1,38.240110713390955,1,13.264368869966981,1,-0.27691008883991902,1,111.92808390982970,1.1160922959062194,3.1740561133066283,0.52574522488922604,0.44885182680625507,0.31704627767052673,0.30090012791706056,-59.786732940029289,-0.31779625789317617,120.08663371117031,219.55666609146135,262.75325375651772,328.93589426781449,94.906279152777770,93.859999999999999,-6.0099999999999909,0.23913369563203901,-5.9218882937960871,0.35857087271987448
20240202153000,419.91809383713149,4.0064097863736139,0.18059643497349770,1,43.001469484071194,0,3.7379148695644209,1,0.68338451181032867,0,96.758349794081653,1.7059151075988381,4.7036327950219130,0.67170498108422061,0.53535506007653810,0.42129697080279305,0.38262096793960160,-109.33506469614517,-0.17377773592399845,115.93090961918325,211.95867705108932,253.66040142867053,317.55272215045915,94.926588836371536,93.739999999999995,-5.4703333333333148,0.25404409593823912,-5.1636860546535672,0.28356113994241500
20240202160000,419.04938693506591,4.2697762161231214,0.32270056521963469,0,62.601782537556815,0,14.912985116108464,0,0.89946508326045227,1,106.08821904876756,1.6264325260794501,4.8778607005316488,0.93036541974449016,0.67797878972892722,0.54080707927519700,0.51230673342525046,-180.34534615103587,-0.10535342555547762,119.90714337541095,219.22850051218677,262.36052337278448,328.44424243046313,94.970074217881958,92.796666666666667,-4.4900000000000091,0.31485421113269185,-3.7982762942844488,0.40803709221247364
20240202163000,418.85098817452672,4.0494047707906802,0.20581132477981784,1,89.816444655039675,0,6.0337375991602435,2,0.23936857367900136,2,92.035433946007373,2.2568047619237790,4.7959909199266333,0.78678837980647875,0.57439523660579139,0.48868567236038141,0.41007758585988485,-64.475942624482656,-0.29468355523949119,108.82383849550975,198.96468435293690,238.10991088102435,298.08535327314291,94.989392646050348,79.733999999999995,-3.1709999999999923,0.97792886873835638,-2.9804852939181501,0.37114664300978756
20240202170000,418.70293234734800,3.9311553723551307,0.22319632850054560,1,156.73340703607082,0,15.951400004988745,1,0.56229023404228529,0,81.804489159964859,1.5420553311183338,4.6884792937958784,0.64913041174938990,0.61207889669853310,0.54410002632695376,0.42788982908460971,-41.977192558665230,-0.45262674423608840,103.31835266147347,188.89890036367069,226.06373828297532,283.00497463122707,94.997404753906252,71.326999999999998,-2.0683333333333280,1.5016461458027390,-2.0474945407442533,0.42932850043131804
20240202173000,418.82968214073873,3.9841099306319885,0.14667549204170510,1,96.013175896680394,0,11.087510941076779,0,-0.49871003087180427,1,77.754862615222109,1.3129115739597521,3.7701817713602068,0.60237455400765993,0.50008836586118388,0.47959848817757261,0.34755238286530804,-36.715283650982990,-0.51749566149657966,96.776268334962978,176.93788372402918,211.74945625160009,265.08519212244306,94.975563630642355,67.147999999999996,-1.0693333333333612,1.8517758004393658,-1.1195176323784608,0.36921119086985593
20240202180000,418.25958069544521,3.7873925418329666,0.39787597486250503,0,49.175029197309051,2,78.965768656759380,1,2.0793878848393912,1,98.631572268160468,1.7926940398614215,4.5313610823090213,1.0153811566059758,0.61004913954481066,0.55684079777357554,0.57374948937896353,-322.38413071144669,-5.8935903445589105E-002,128.24720585531603,234.47679465195424,280.60883698942200,351.28896565482512,94.927041749579800,58.686000000000000,7.6000000000021828E-002,2.5316839117406778,-6.0822242007247951E-003,0.41256880668739415
20240202183000,417.84996441956423,3.6496337029798207,0.37864109609443686,0,108.31066712615475,0,30.756747259222482,0,0.14984813945001318,2,96.134188158163155,2.0632258177751548,5.0798455388462749,1.0249603598854879,0.65389299091752373,0.57785585349035706,0.56091286421200626,-136.71888565652176,-0.13897129067986710,122.26878782543184,223.54633977469044,267.52787417846611,334.91315245902348,94.885803094618055,52.313333333333333,1.1476666666666802,3.1575596812563989,0.97474741702609435,0.36921515984280462
20240202190000,417.54394223467915,3.5333226774912259,0.27516162140131639,1,151.43232861113768,0,23.748621424542122,1,0.26792179223952534,2,88.159614132381591,1.9978130647270846,4.6776192600062352,0.82222043883344087,0.60669003941462163,0.54757492182618728,0.47899189092650823,-60.878015602976134,-0.31209952906334792,112.50260763419843,205.69064762169921,246.15917107874441,308.16207188072633,94.850212940538199,47.594666666666669,2.0090000000000146,3.6910955561636252,1.8037149107191794,0.43985269454329889
20240202193000,417.07286105477846,3.2447592224473278,0.31474281029793694,0,97.789598195018883,0,52.502679884022406,1,1.5212757486062070,1,91.002517145464211,2.2600548671391070,4.9893449105669578,0.98438685941085724,0.64283317538768425,0.53736698111745596,0.51326381235103891,-115.94495162194073,-0.16387086918586072,120.70093497038991,220.67980471465268,264.09736383487081,330.61856058800839,94.801789573784717,40.855000000000004,2.9499999999999886,4.4543907490758139,2.6848304256863571,0.35113165584108597
20240202200000,416.68470677594297,2.9843883119457324,0.35622677091869315,1,98.504007359363186,0,20.323005775045441,0,0.50072365333923419,0,91.758093407422137,2.7450490368352156,5.3372618341848819,0.93884995094685120,0.66654009861019126,0.59859958648144784,0.54671495298311179,-139.06671248493140,-0.13662507483276237,116.45403250410052,212.91511252620498,254.80501041535513,318.98563677754481,94.766757029513883,35.986666666666665,3.5559999999999832,5.0321855952246297,3.3710155571832274,0.31885537337066605
20240202203000,416.69871986537663,2.9618381430013305,0.25575420127842352,0,72.254400607649472,0,11.888401694735705,0,0.34332238963213324,0,93.704903532509832,2.7288745444763105,5.1889734704720079,0.84435419362421893,0.67751288239755214,0.54160525188512110,0.46364713774459088,-115.62865044545131,-0.16431913653583108,110.57543910530499,202.16716891200437,241.94246697225890,302.88325871171844,94.757938926866331,34.574666666666666,4.0153333333333308,5.3122847861082301,3.7401380666096884,0.24679147504110244
20240202210000,416.77812391413642,3.0377133767674507,0.23703601088306686,0,64.075333706152662,0,9.9645630084015462,0,0.44996517845319639,0,97.422280808542780,2.2628564949596575,4.9613729424169737,0.81782174260540241,0.65575159826290097,0.54097816485310291,0.44670034453727842,-116.60747874990714,-0.16293980629450089,107.42964502365672,196.41565403118796,235.05937261731910,294.26644135702293,94.755902219604266,34.450666666666663,4.4266666666666765,5.4782291259903904,4.1741025269965917,0.22492788701706470
20240202213000,416.89024016714274,3.0773827562438294,0.30447245842343590,0,61.600179550434945,0,14.064503908935967,0,-0.12305556913591731,2,132.82900437679587,1.6291931188623952,4.8310648463927386,0.91626552322082799,0.92472983208836868,0.51513917090041650,0.50676600104976188,-177.10156203484769,-0.10728307408300235,123.58370650527823,225.95043049325312,270.40495675524858,338.51491843811675,94.758020257812504,33.596666666666664,4.9716666666666924,5.7651108749069451,4.6287269838121006,0.24678513593347534
20240202220000,417.26379709184584,3.2377703761040117,0.19851177067869208,1,42.854492241620385,0,0.74369396608445282,0,-0.14440099944761581,1,153.57017384988089,1.5040097552801626,4.1601579470466570,0.73585496008526774,0.77129799274040056,0.45818165731244559,0.40928543192220723,-134.10663639265906,-0.14167829804014123,114.40520143220348,209.16919588562163,250.32210491703634,313.37357105456795,94.750135087618773,35.129333333333335,5.0593333333333135,5.6665772718566592,4.7618232156870590,0.14424255677489778
20240202223000,417.35708633327448,3.2528272463777812,8.5331698147154092E-002,0,4.0254123617566870,1,1.4399666657005552,2,0.14278905008539144,1,163.29451269678549,1.8349026898375695,3.9749604690966245,0.61138195593593136,0.54270882302605916,0.40240347584397090,0.26820279678949238,-401.74845225764517,-4.7293274916750935E-002,90.509916234613428,165.48099353409290,198.03848482483019,247.92068289918427,94.752555230251730,35.996666666666670,4.7766666666666424,5.4816173434711244,4.5485530624389412,0.12781898929015559